池谷-村上彗星

332P/Ikeya-Murakami (2010)

English version
Home page
Updated on February 27, 2016

---------------------------------------------------------------------

・ プロフィール

符号 332P/2010 V1
発見日 2010年11月2日、3日
発見光度 8.5等、9等
発見者 池谷薫(静岡県)、村上茂樹(新潟県)

・ 写真集

・ 軌道要素

Epoch 2010 Oct. 11.0 TT = JDT 2455480.5
T 2010 Oct. 13.36701 TT                                 MPCW
q   1.5790036            (2000.0)            P               Q
n   0.18142581     Peri.  152.44592     -0.91501982     -0.40326274
a   3.0903192      Node     3.82120     +0.33362323     -0.77158833
e   0.4890484      Incl.    9.37702     +0.22679126     -0.49196607
P   5.43
From 494 observations 2010 Nov. 3-2016 Feb. 5, mean residual 0".7.

・ 星図

・ 光度変化

        H = 17  G = 0.15                         [  ,22]  (              〜2010年11月 2日)
        m1 = -27 + 5 logΔ + 100 log r(t + 150)  [22,  ]  (2010年11月 2日〜              )

---------------------------------------------------------------------

軌道要素はM.P.E.C. 2016-C51に掲載されたものです。
星図はステラナビゲータ Ver.8 (アストロアーツ) で作成したものです。
光度グラフはComet for Windowsで作成したものです。

---------------------------------------------------------------------

Copyright(C) Seiichi Yoshida (comet@aerith.net). All rights reserved.